owner,sensor,date,latitude,longitude,vertical_datum,direction_of_sea_water_velocity,sea_water_speed,upward_sea_water_velocity,qcFlag 
TABS,ioos:station:wmo:42045:1,2019-02-01T00:00:00Z,26.2168,-96.4998,2.0,176.0217648,25.80216464,-99999.0,'11111222,11111222,99999999' 
TABS,ioos:station:wmo:42045:1,2019-02-01T00:30:00Z,26.2168,-96.4998,2.0,170.8703079,30.00003333,-99999.0,'11111222,11111222,99999999' 
TABS,ioos:station:wmo:42045:1,2019-02-01T01:00:00Z,26.2168,-96.4998,2.0,167.5535507,33.12856924,-99999.0,'11111222,11111222,99999999' 
TABS,ioos:station:wmo:42045:1,2019-02-01T01:30:00Z,26.2168,-96.4998,2.0,162.0489173,35.56108125,-99999.0,'11111222,11111222,99999999' 
TABS,ioos:station:wmo:42045:1,2019-02-01T02:00:00Z,26.2168,-96.4998,2.0,159.023427,39.72249363,-99999.0,'11111222,11111222,99999999' 
TABS,ioos:station:wmo:42045:1,2019-02-01T02:30:00Z,26.2168,-96.4998,2.0,160.4631803,41.11721051,-99999.0,'11111222,11111222,99999999' 
TABS,ioos:station:wmo:42045:1,2019-02-01T03:00:00Z,26.2168,-96.4998,2.0,163.6804968,46.51402477,-99999.0,'11111222,11111222,99999999' 
TABS,ioos:station:wmo:42045:1,2019-02-01T03:30:00Z,26.2168,-96.4998,2.0,161.483734,46.8871379,-99999.0,'11111222,11111222,99999999' 
TABS,ioos:station:wmo:42045:1,2019-02-01T04:00:00Z,26.2168,-96.4998,2.0,163.9202616,45.16702448,-99999.0,'11111222,11111222,99999999' 
TABS,ioos:station:wmo:42045:1,2019-02-01T04:30:00Z,26.2168,-96.4998,2.0,167.8841469,47.83549414,-99999.0,'11111222,11111222,99999999' 
TABS,ioos:station:wmo:42045:1,2019-02-01T05:00:00Z,26.2168,-96.4998,2.0,167.7901492,47.70917103,-99999.0,'11111222,11111222,99999999' 
TABS,ioos:station:wmo:42045:1,2019-02-01T05:30:00Z,26.2168,-96.4998,2.0,169.2860133,44.86203295,-99999.0,'11111222,11111222,99999999' 
TABS,ioos:station:wmo:42045:1,2019-02-01T06:00:00Z,26.2168,-96.4998,2.0,173.5597505,47.51986216,-99999.0,'11111222,11111222,99999999' 
TABS,ioos:station:wmo:42045:1,2019-02-01T06:30:00Z,26.2168,-96.4998,2.0,170.3241767,45.0407027,-99999.0,'11111222,11111222,99999999' 
TABS,ioos:station:wmo:42045:1,2019-02-01T07:00:00Z,26.2168,-96.4998,2.0,172.168755,43.08177457,-99999.0,'11111222,11111222,99999999' 
TABS,ioos:station:wmo:42045:1,2019-02-01T07:30:00Z,26.2168,-96.4998,2.0,171.2875116,42.44981154,-99999.0,'11111222,11111222,99999999' 
TABS,ioos:station:wmo:42045:1,2019-02-01T08:00:00Z,26.2168,-96.4998,2.0,177.6747772,46.58835262,-99999.0,'11111222,11111222,99999999' 
TABS,ioos:station:wmo:42045:1,2019-02-01T08:30:00Z,26.2168,-96.4998,2.0,194.2910426,43.58893438,-99999.0,'11111222,11111222,99999999' 
TABS,ioos:station:wmo:42045:1,2019-02-01T09:00:00Z,26.2168,-96.4998,2.0,168.5443975,43.25159188,-99999.0,'11111222,11111222,99999999' 
TABS,ioos:station:wmo:42045:1,2019-02-01T09:30:00Z,26.2168,-96.4998,2.0,175.8932336,42.87006531,-99999.0,'11111222,11111222,99999999' 
TABS,ioos:station:wmo:42045:1,2019-02-01T10:00:00Z,26.2168,-96.4998,2.0,174.7747937,49.19441533,-99999.0,'11111222,11111222,99999999' 
TABS,ioos:station:wmo:42045:1,2019-02-01T10:30:00Z,26.2168,-96.4998,2.0,192.4621538,53.3367275,-99999.0,'11111222,11111222,99999999' 
TABS,ioos:station:wmo:42045:1,2019-02-01T11:00:00Z,26.2168,-96.4998,2.0,186.4122929,53.36386886,-99999.0,'11111222,11111222,99999999' 
TABS,ioos:station:wmo:42045:1,2019-02-01T11:30:00Z,26.2168,-96.4998,2.0,190.6235372,42.74265434,-99999.0,'11111222,11111222,99999999' 
TABS,ioos:station:wmo:42045:1,2019-02-01T12:00:00Z,26.2168,-96.4998,2.0,180.689296,44.87324927,-99999.0,'11111222,11111222,99999999' 
TABS,ioos:station:wmo:42045:1,2019-02-01T12:30:00Z,26.2168,-96.4998,2.0,183.9210795,46.20817677,-99999.0,'11111222,11111222,99999999' 
TABS,ioos:station:wmo:42045:1,2019-02-01T13:00:00Z,26.2168,-96.4998,2.0,190.5160472,42.9005979,-99999.0,'11111222,11111222,99999999' 
TABS,ioos:station:wmo:42045:1,2019-02-01T13:30:00Z,26.2168,-96.4998,2.0,172.504498,54.50572172,-99999.0,'11111222,11111222,99999999' 
TABS,ioos:station:wmo:42045:1,2019-02-01T14:00:00Z,26.2168,-96.4998,2.0,179.8070665,50.54028591,-99999.0,'11111222,11111222,99999999' 
TABS,ioos:station:wmo:42045:1,2019-02-01T14:30:00Z,26.2168,-96.4998,2.0,191.8382428,45.2831812,-99999.0,'11111222,11111222,99999999' 
TABS,ioos:station:wmo:42045:1,2019-02-01T15:00:00Z,26.2168,-96.4998,2.0,186.9213464,43.31568307,-99999.0,'11111222,11111222,99999999' 
TABS,ioos:station:wmo:42045:1,2019-02-01T15:30:00Z,26.2168,-96.4998,2.0,188.4232312,35.90735301,-99999.0,'11111222,11111222,99999999' 
TABS,ioos:station:wmo:42045:1,2019-02-01T16:00:00Z,26.2168,-96.4998,2.0,189.8663312,32.38905062,-99999.0,'11111222,11111222,99999999' 
TABS,ioos:station:wmo:42045:1,2019-02-01T16:30:00Z,26.2168,-96.4998,2.0,178.7418103,29.60713596,-99999.0,'11111222,11111222,99999999' 
TABS,ioos:station:wmo:42045:1,2019-02-01T17:00:00Z,26.2168,-96.4998,2.0,174.475295,30.3308836,-99999.0,'11111222,11111222,99999999' 
TABS,ioos:station:wmo:42045:1,2019-02-01T17:30:00Z,26.2168,-96.4998,2.0,177.3854506,30.91217398,-99999.0,'11111222,11111222,99999999' 
TABS,ioos:station:wmo:42045:1,2019-02-01T18:00:00Z,26.2168,-96.4998,2.0,197.0879541,26.10232557,-99999.0,'11111222,11111222,99999999' 
TABS,ioos:station:wmo:42045:1,2019-02-01T18:30:00Z,26.2168,-96.4998,2.0,196.3201243,30.85321701,-99999.0,'11111222,11111222,99999999' 
TABS,ioos:station:wmo:42045:1,2019-02-01T19:00:00Z,26.2168,-96.4998,2.0,192.0861751,33.5742431,-99999.0,'11111222,11111222,99999999' 
TABS,ioos:station:wmo:42045:1,2019-02-01T19:30:00Z,26.2168,-96.4998,2.0,187.6834948,34.85293675,-99999.0,'11111222,11111222,99999999' 
TABS,ioos:station:wmo:42045:1,2019-02-01T20:00:00Z,26.2168,-96.4998,2.0,187.004853,31.40442326,-99999.0,'11111222,11111222,99999999' 
TABS,ioos:station:wmo:42045:1,2019-02-01T20:30:00Z,26.2168,-96.4998,2.0,187.6999983,29.40515601,-99999.0,'11111222,11111222,99999999' 
TABS,ioos:station:wmo:42045:1,2019-02-01T21:00:00Z,26.2168,-96.4998,2.0,185.1038122,32.7097004,-99999.0,'11111222,11111222,99999999' 
TABS,ioos:station:wmo:42045:1,2019-02-01T21:30:00Z,26.2168,-96.4998,2.0,188.058432,34.02600476,-99999.0,'11111222,11111222,99999999' 
TABS,ioos:station:wmo:42045:1,2019-02-01T22:00:00Z,26.2168,-96.4998,2.0,171.8241505,30.23730973,-99999.0,'11111222,11111222,99999999' 
TABS,ioos:station:wmo:42045:1,2019-02-01T22:30:00Z,26.2168,-96.4998,2.0,175.9419339,32.36112637,-99999.0,'11111222,11111222,99999999' 
TABS,ioos:station:wmo:42045:1,2019-02-01T23:00:00Z,26.2168,-96.4998,2.0,200.380685,30.63800418,-99999.0,'11111222,11111222,99999999' 
TABS,ioos:station:wmo:42045:1,2019-02-01T23:30:00Z,26.2168,-96.4998,2.0,199.6054473,32.03739846,-99999.0,'11111222,11111222,99999999' 
TABS,ioos:station:wmo:42045:1,2019-02-02T00:00:00Z,26.2168,-96.4998,2.0,206.492334,31.83268917,-99999.0,'11111222,11111222,99999999' 
TABS,ioos:station:wmo:42045:1,2019-02-02T00:30:00Z,26.2168,-96.4998,2.0,201.4074615,31.89021323,-99999.0,'11111222,11111222,99999999' 
TABS,ioos:station:wmo:42045:1,2019-02-02T01:00:00Z,26.2168,-96.4998,2.0,196.9716668,35.42273281,-99999.0,'11111222,11111222,99999999' 
TABS,ioos:station:wmo:42045:1,2019-02-02T01:30:00Z,26.2168,-96.4998,2.0,204.9298364,35.89455948,-99999.0,'11111222,11111222,99999999' 
TABS,ioos:station:wmo:42045:1,2019-02-02T02:00:00Z,26.2168,-96.4998,2.0,201.6705802,35.85414899,-99999.0,'11111222,11111222,99999999' 
TABS,ioos:station:wmo:42045:1,2019-02-02T02:30:00Z,26.2168,-96.4998,2.0,205.9389325,36.02967666,-99999.0,'11111222,11111222,99999999' 
TABS,ioos:station:wmo:42045:1,2019-02-02T03:00:00Z,26.2168,-96.4998,2.0,201.5100141,38.37258005,-99999.0,'11111222,11111222,99999999' 
TABS,ioos:station:wmo:42045:1,2019-02-02T03:30:00Z,26.2168,-96.4998,2.0,201.8453667,36.09175668,-99999.0,'11111222,11111222,99999999' 
TABS,ioos:station:wmo:42045:1,2019-02-02T04:00:00Z,26.2168,-96.4998,2.0,206.1548242,36.25206201,-99999.0,'11111222,11111222,99999999' 
TABS,ioos:station:wmo:42045:1,2019-02-02T04:30:00Z,26.2168,-96.4998,2.0,209.6973836,34.61686583,-99999.0,'11111222,11111222,99999999' 
TABS,ioos:station:wmo:42045:1,2019-02-02T05:00:00Z,26.2168,-96.4998,2.0,207.4367552,32.61906498,-99999.0,'11111222,11111222,99999999' 
TABS,ioos:station:wmo:42045:1,2019-02-02T05:30:00Z,26.2168,-96.4998,2.0,204.3222554,28.11549039,-99999.0,'11111222,11111222,99999999' 
TABS,ioos:station:wmo:42045:1,2019-02-02T06:00:00Z,26.2168,-96.4998,2.0,200.847828,28.01416249,-99999.0,'11111222,11111222,99999999' 
TABS,ioos:station:wmo:42045:1,2019-02-02T06:30:00Z,26.2168,-96.4998,2.0,199.9038116,29.10884745,-99999.0,'11111222,11111222,99999999' 
TABS,ioos:station:wmo:42045:1,2019-02-02T07:00:00Z,26.2168,-96.4998,2.0,197.0320943,29.32626297,-99999.0,'11111222,11111222,99999999' 
TABS,ioos:station:wmo:42045:1,2019-02-02T07:30:00Z,26.2168,-96.4998,2.0,195.3132891,27.5273573,-99999.0,'11111222,11111222,99999999' 
TABS,ioos:station:wmo:42045:1,2019-02-02T08:00:00Z,26.2168,-96.4998,2.0,195.0040125,25.84100811,-99999.0,'11111222,11111222,99999999' 
TABS,ioos:station:wmo:42045:1,2019-02-02T08:30:00Z,26.2168,-96.4998,2.0,195.0967069,25.41723824,-99999.0,'11111222,11111222,99999999' 
TABS,ioos:station:wmo:42045:1,2019-02-02T09:00:00Z,26.2168,-96.4998,2.0,191.2958527,24.35174121,-99999.0,'11111222,11111222,99999999' 
TABS,ioos:station:wmo:42045:1,2019-02-02T09:30:00Z,26.2168,-96.4998,2.0,189.553563,22.65420932,-99999.0,'11111222,11111222,99999999' 
TABS,ioos:station:wmo:42045:1,2019-02-02T10:00:00Z,26.2168,-96.4998,2.0,188.8330306,25.00659313,-99999.0,'11111222,11111222,99999999' 
TABS,ioos:station:wmo:42045:1,2019-02-02T10:30:00Z,26.2168,-96.4998,2.0,174.373376,26.41727087,-99999.0,'11111222,11111222,99999999' 
TABS,ioos:station:wmo:42045:1,2019-02-02T11:00:00Z,26.2168,-96.4998,2.0,183.5161982,24.45604424,-99999.0,'11111222,11111222,99999999' 
TABS,ioos:station:wmo:42045:1,2019-02-02T11:30:00Z,26.2168,-96.4998,2.0,194.0193073,24.97389437,-99999.0,'11111222,11111222,99999999' 
TABS,ioos:station:wmo:42045:1,2019-02-02T12:00:00Z,26.2168,-96.4998,2.0,184.0233668,22.37514916,-99999.0,'11111222,11111222,99999999' 
TABS,ioos:station:wmo:42045:1,2019-02-02T12:30:00Z,26.2168,-96.4998,2.0,194.5260486,20.13361865,-99999.0,'11111222,11111222,99999999' 
TABS,ioos:station:wmo:42045:1,2019-02-02T13:00:00Z,26.2168,-96.4998,2.0,180.2048344,19.56012526,-99999.0,'11111222,11111222,99999999' 
TABS,ioos:station:wmo:42045:1,2019-02-02T13:30:00Z,26.2168,-96.4998,2.0,190.082946,19.41994851,-99999.0,'11111222,11111222,99999999' 
TABS,ioos:station:wmo:42045:1,2019-02-02T14:00:00Z,26.2168,-96.4998,2.0,185.2951648,15.92797853,-99999.0,'11111222,11111222,99999999' 
TABS,ioos:station:wmo:42045:1,2019-02-02T14:30:00Z,26.2168,-96.4998,2.0,180.483694,17.76063343,-99999.0,'11111222,11111222,99999999' 
TABS,ioos:station:wmo:42045:1,2019-02-02T15:00:00Z,26.2168,-96.4998,2.0,198.0157218,13.83849703,-99999.0,'11111222,11111222,99999999' 
TABS,ioos:station:wmo:42045:1,2019-02-02T15:30:00Z,26.2168,-96.4998,2.0,186.354066,13.46270775,-99999.0,'11111222,11111222,99999999' 
TABS,ioos:station:wmo:42045:1,2019-02-02T16:00:00Z,26.2168,-96.4998,2.0,196.6648873,11.26308128,-99999.0,'11111222,11111222,99999999' 
TABS,ioos:station:wmo:42045:1,2019-02-02T16:30:00Z,26.2168,-96.4998,2.0,206.8032882,9.668841709,-99999.0,'11133222,11111222,99999999' 
TABS,ioos:station:wmo:42045:1,2019-02-02T17:00:00Z,26.2168,-96.4998,2.0,186.9714389,11.12223449,-99999.0,'11111222,11111222,99999999' 
TABS,ioos:station:wmo:42045:1,2019-02-02T17:30:00Z,26.2168,-96.4998,2.0,186.5488658,9.995223859,-99999.0,'11133222,11111222,99999999' 
TABS,ioos:station:wmo:42045:1,2019-02-02T18:00:00Z,26.2168,-96.4998,2.0,165.6701756,8.525239,-99999.0,'11133222,11111222,99999999' 
TABS,ioos:station:wmo:42045:1,2019-02-02T18:30:00Z,26.2168,-96.4998,2.0,178.7877917,7.091586564,-99999.0,'11133222,11111222,99999999' 
TABS,ioos:station:wmo:42045:1,2019-02-02T19:00:00Z,26.2168,-96.4998,2.0,167.0586339,7.233733476,-99999.0,'11133222,11111222,99999999' 
TABS,ioos:station:wmo:42045:1,2019-02-02T19:30:00Z,26.2168,-96.4998,2.0,179.3631975,3.600222215,-99999.0,'11133222,11111222,99999999' 
TABS,ioos:station:wmo:42045:1,2019-02-02T20:00:00Z,26.2168,-96.4998,2.0,200.2200316,6.191582996,-99999.0,'11133222,11111222,99999999' 
TABS,ioos:station:wmo:42045:1,2019-02-02T20:30:00Z,26.2168,-96.4998,2.0,242.0760547,1.131768528,-99999.0,'11133222,11111222,99999999' 
TABS,ioos:station:wmo:42045:1,2019-02-02T21:00:00Z,26.2168,-96.4998,2.0,221.0421405,1.126987134,-99999.0,'11133222,11111222,99999999' 
TABS,ioos:station:wmo:42045:1,2019-02-02T21:30:00Z,26.2168,-96.4998,2.0,121.4694333,1.360036764,-99999.0,'11133222,11111222,99999999' 
TABS,ioos:station:wmo:42045:1,2019-02-02T22:00:00Z,26.2168,-96.4998,2.0,147.0021616,2.754287567,-99999.0,'11133222,11111222,99999999' 
TABS,ioos:station:wmo:42045:1,2019-02-02T22:30:00Z,26.2168,-96.4998,2.0,142.1069503,2.800446393,-99999.0,'11133222,11111222,99999999' 
TABS,ioos:station:wmo:42045:1,2019-02-02T23:00:00Z,26.2168,-96.4998,2.0,131.0547178,0.411096096,-99999.0,'11133222,11111222,99999999' 
TABS,ioos:station:wmo:42045:1,2019-02-02T23:30:00Z,26.2168,-96.4998,2.0,168.9245081,2.394598087,-99999.0,'11133222,11111222,99999999' 
TABS,ioos:station:wmo:42045:1,2019-02-03T00:00:00Z,26.2168,-96.4998,2.0,294.4443185,0.845813218,-99999.0,'11133222,11111222,99999999' 
TABS,ioos:station:wmo:42045:1,2019-02-03T00:30:00Z,26.2168,-96.4998,2.0,131.568123,4.370686445,-99999.0,'11133222,11111222,99999999' 
TABS,ioos:station:wmo:42045:1,2019-02-03T01:00:00Z,26.2168,-96.4998,2.0,160.8614256,2.318124242,-99999.0,'11133222,11111222,99999999' 
TABS,ioos:station:wmo:42045:1,2019-02-03T01:30:00Z,26.2168,-96.4998,2.0,182.5508787,2.022003956,-99999.0,'11133222,11111222,99999999' 
TABS,ioos:station:wmo:42045:1,2019-02-03T02:00:00Z,26.2168,-96.4998,2.0,161.0565708,2.495135267,-99999.0,'11133222,11111222,99999999' 
TABS,ioos:station:wmo:42045:1,2019-02-03T02:30:00Z,26.2168,-96.4998,2.0,155.8262683,1.929170806,-99999.0,'11133222,11111222,99999999' 
TABS,ioos:station:wmo:42045:1,2019-02-03T03:00:00Z,26.2168,-96.4998,2.0,70.80457729,1.429475428,-99999.0,'11133222,11111222,99999999' 
TABS,ioos:station:wmo:42045:1,2019-02-03T03:30:00Z,26.2168,-96.4998,2.0,189.4620896,0.364965752,-99999.0,'11133222,11111222,99999999' 
TABS,ioos:station:wmo:42045:1,2019-02-03T04:00:00Z,26.2168,-96.4998,2.0,70.27776835,3.941192713,-99999.0,'11133222,11111222,99999999' 
TABS,ioos:station:wmo:42045:1,2019-02-03T04:30:00Z,26.2168,-96.4998,2.0,66.62881272,3.050262284,-99999.0,'11133222,11111222,99999999' 
TABS,ioos:station:wmo:42045:1,2019-02-03T05:00:00Z,26.2168,-96.4998,2.0,65.47600067,4.143826734,-99999.0,'11133222,11111222,99999999' 
TABS,ioos:station:wmo:42045:1,2019-02-03T05:30:00Z,26.2168,-96.4998,2.0,67.7839137,5.130896608,-99999.0,'11133222,11111222,99999999' 
TABS,ioos:station:wmo:42045:1,2019-02-03T06:00:00Z,26.2168,-96.4998,2.0,77.429605,5.973181732,-99999.0,'11133222,11111222,99999999' 
TABS,ioos:station:wmo:42045:1,2019-02-03T06:30:00Z,26.2168,-96.4998,2.0,80.98909747,8.555588817,-99999.0,'11133222,11111222,99999999' 
TABS,ioos:station:wmo:42045:1,2019-02-03T07:00:00Z,26.2168,-96.4998,2.0,93.86620702,10.23328882,-99999.0,'11111222,11111222,99999999' 
TABS,ioos:station:wmo:42045:1,2019-02-03T07:30:00Z,26.2168,-96.4998,2.0,79.41628408,8.82005102,-99999.0,'11133222,11111222,99999999' 
TABS,ioos:station:wmo:42045:1,2019-02-03T08:00:00Z,26.2168,-96.4998,2.0,72.38660896,10.1456296,-99999.0,'11111222,11111222,99999999' 
TABS,ioos:station:wmo:42045:1,2019-02-03T08:30:00Z,26.2168,-96.4998,2.0,68.77317992,11.29641536,-99999.0,'11111222,11111222,99999999' 
TABS,ioos:station:wmo:42045:1,2019-02-03T09:00:00Z,26.2168,-96.4998,2.0,68.13296062,9.719300386,-99999.0,'11133222,11111222,99999999' 
TABS,ioos:station:wmo:42045:1,2019-02-03T09:30:00Z,26.2168,-96.4998,2.0,80.33854141,7.567331102,-99999.0,'11133222,11111222,99999999' 
TABS,ioos:station:wmo:42045:1,2019-02-03T10:00:00Z,26.2168,-96.4998,2.0,75.75908981,6.78861547,-99999.0,'11133222,11111222,99999999' 
TABS,ioos:station:wmo:42045:1,2019-02-03T10:30:00Z,26.2168,-96.4998,2.0,79.0113746,6.295426912,-99999.0,'11133222,11111222,99999999' 
TABS,ioos:station:wmo:42045:1,2019-02-03T11:00:00Z,26.2168,-96.4998,2.0,81.91738611,8.534781778,-99999.0,'11133222,11111222,99999999' 
TABS,ioos:station:wmo:42045:1,2019-02-03T11:30:00Z,26.2168,-96.4998,2.0,77.05123788,8.434482794,-99999.0,'11133222,11111222,99999999' 
TABS,ioos:station:wmo:42045:1,2019-02-03T12:00:00Z,26.2168,-96.4998,2.0,70.51844436,9.17529836,-99999.0,'11133222,11111222,99999999' 
TABS,ioos:station:wmo:42045:1,2019-02-03T12:30:00Z,26.2168,-96.4998,2.0,82.41755977,9.321507389,-99999.0,'11133222,11111222,99999999' 
TABS,ioos:station:wmo:42045:1,2019-02-03T13:00:00Z,26.2168,-96.4998,2.0,114.7750826,6.013484847,-99999.0,'11133222,11111222,99999999' 
TABS,ioos:station:wmo:42045:1,2019-02-03T13:30:00Z,26.2168,-96.4998,2.0,114.0059927,8.013114251,-99999.0,'11133222,11111222,99999999' 
TABS,ioos:station:wmo:42045:1,2019-02-03T14:00:00Z,26.2168,-96.4998,2.0,115.8348742,5.96631377,-99999.0,'11133222,11111222,99999999' 
TABS,ioos:station:wmo:42045:1,2019-02-03T14:30:00Z,26.2168,-96.4998,2.0,109.8014961,8.088244556,-99999.0,'11133222,11111222,99999999' 
TABS,ioos:station:wmo:42045:1,2019-02-03T15:00:00Z,26.2168,-96.4998,2.0,97.44739943,4.629049578,-99999.0,'11133222,11111222,99999999' 
TABS,ioos:station:wmo:42045:1,2019-02-03T15:30:00Z,26.2168,-96.4998,2.0,106.5151001,5.663656063,-99999.0,'11133222,11111222,99999999' 
TABS,ioos:station:wmo:42045:1,2019-02-03T16:00:00Z,26.2168,-96.4998,2.0,91.29459649,3.540903839,-99999.0,'11133222,11111222,99999999' 
TABS,ioos:station:wmo:42045:1,2019-02-03T16:30:00Z,26.2168,-96.4998,2.0,102.8832464,3.857097354,-99999.0,'11133222,11111222,99999999' 
TABS,ioos:station:wmo:42045:1,2019-02-03T17:00:00Z,26.2168,-96.4998,2.0,55.55395425,1.891692364,-99999.0,'11133222,11111222,99999999' 
TABS,ioos:station:wmo:42045:1,2019-02-03T17:30:00Z,26.2168,-96.4998,2.0,48.07949744,4.475377079,-99999.0,'11133222,11111222,99999999' 
TABS,ioos:station:wmo:42045:1,2019-02-03T18:00:00Z,26.2168,-96.4998,2.0,68.91769889,4.58703608,-99999.0,'11133222,11111222,99999999' 
TABS,ioos:station:wmo:42045:1,2019-02-03T18:30:00Z,26.2168,-96.4998,2.0,89.3610416,2.690167281,-99999.0,'11133222,11111222,99999999' 
TABS,ioos:station:wmo:42045:1,2019-02-03T19:00:00Z,26.2168,-96.4998,2.0,353.0827088,2.739945255,-99999.0,'11133222,11111222,99999999' 
TABS,ioos:station:wmo:42045:1,2019-02-03T19:30:00Z,26.2168,-96.4998,2.0,40.9752753,3.324530042,-99999.0,'11133222,11111222,99999999' 
TABS,ioos:station:wmo:42045:1,2019-02-03T20:00:00Z,26.2168,-96.4998,2.0,78.46072912,2.449510155,-99999.0,'11133222,11111222,99999999' 
TABS,ioos:station:wmo:42045:1,2019-02-03T20:30:00Z,26.2168,-96.4998,2.0,53.61573327,4.720169488,-99999.0,'11133222,11111222,99999999' 
TABS,ioos:station:wmo:42045:1,2019-02-03T21:00:00Z,26.2168,-96.4998,2.0,76.74115882,5.362956274,-99999.0,'11133222,11111222,99999999' 
TABS,ioos:station:wmo:42045:1,2019-02-03T21:30:00Z,26.2168,-96.4998,2.0,76.21217933,3.356724594,-99999.0,'11133222,11111222,99999999' 
TABS,ioos:station:wmo:42045:1,2019-02-03T22:00:00Z,26.2168,-96.4998,2.0,62.44725285,8.042095498,-99999.0,'11133222,11111222,99999999' 
TABS,ioos:station:wmo:42045:1,2019-02-03T22:30:00Z,26.2168,-96.4998,2.0,90.0,3.57,-99999.0,'11133222,11111222,99999999' 
TABS,ioos:station:wmo:42045:1,2019-02-03T23:00:00Z,26.2168,-96.4998,2.0,73.86563664,2.914807026,-99999.0,'11133222,11111222,99999999' 
TABS,ioos:station:wmo:42045:1,2019-02-03T23:30:00Z,26.2168,-96.4998,2.0,22.72988939,4.011545837,-99999.0,'11133222,11111222,99999999' 
TABS,ioos:station:wmo:42045:1,2019-02-04T00:00:00Z,26.2168,-96.4998,2.0,51.47404606,2.006838309,-99999.0,'11133222,11111222,99999999' 
TABS,ioos:station:wmo:42045:1,2019-02-04T00:30:00Z,26.2168,-96.4998,2.0,333.4879313,4.86121384,-99999.0,'11133222,11111222,99999999' 
TABS,ioos:station:wmo:42045:1,2019-02-04T01:00:00Z,26.2168,-96.4998,2.0,29.58553578,1.782386041,-99999.0,'11133222,11111222,99999999' 
TABS,ioos:station:wmo:42045:1,2019-02-04T01:30:00Z,26.2168,-96.4998,2.0,33.70838252,8.739302032,-99999.0,'11133222,11111222,99999999' 
TABS,ioos:station:wmo:42045:1,2019-02-04T02:00:00Z,26.2168,-96.4998,2.0,36.4510484,7.65820475,-99999.0,'11133222,11111222,99999999' 
TABS,ioos:station:wmo:42045:1,2019-02-04T02:30:00Z,26.2168,-96.4998,2.0,26.96586183,3.197655391,-99999.0,'11133222,11111222,99999999' 
TABS,ioos:station:wmo:42045:1,2019-02-04T03:00:00Z,26.2168,-96.4998,2.0,327.0308837,3.08715079,-99999.0,'11133222,11111222,99999999' 
TABS,ioos:station:wmo:42045:1,2019-02-04T03:30:00Z,26.2168,-96.4998,2.0,40.88192516,5.317029246,-99999.0,'11133222,11111222,99999999' 
TABS,ioos:station:wmo:42045:1,2019-02-04T04:00:00Z,26.2168,-96.4998,2.0,24.95214748,7.466953864,-99999.0,'11133222,11111222,99999999' 
TABS,ioos:station:wmo:42045:1,2019-02-04T04:30:00Z,26.2168,-96.4998,2.0,17.63024945,7.428923206,-99999.0,'11133222,11111222,99999999' 
TABS,ioos:station:wmo:42045:1,2019-02-04T05:00:00Z,26.2168,-96.4998,2.0,17.14429054,8.14176885,-99999.0,'11133222,11111222,99999999' 
TABS,ioos:station:wmo:42045:1,2019-02-04T05:30:00Z,26.2168,-96.4998,2.0,22.45468926,8.796959702,-99999.0,'11133222,11111222,99999999' 
TABS,ioos:station:wmo:42045:1,2019-02-04T06:00:00Z,26.2168,-96.4998,2.0,10.19981886,7.793157255,-99999.0,'11133222,11111222,99999999' 
TABS,ioos:station:wmo:42045:1,2019-02-04T06:30:00Z,26.2168,-96.4998,2.0,23.20879683,7.485779852,-99999.0,'11133222,11111222,99999999' 
TABS,ioos:station:wmo:42045:1,2019-02-04T07:00:00Z,26.2168,-96.4998,2.0,13.8585638,5.469204695,-99999.0,'11133222,11111222,99999999' 
TABS,ioos:station:wmo:42045:1,2019-02-04T07:30:00Z,26.2168,-96.4998,2.0,6.131948622,10.01731002,-99999.0,'11111222,11111222,99999999' 
TABS,ioos:station:wmo:42045:1,2019-02-04T08:00:00Z,26.2168,-96.4998,2.0,13.3171162,11.59169099,-99999.0,'11111222,11111222,99999999' 
TABS,ioos:station:wmo:42045:1,2019-02-04T08:30:00Z,26.2168,-96.4998,2.0,5.53738504,9.534490023,-99999.0,'11133222,11111222,99999999' 
TABS,ioos:station:wmo:42045:1,2019-02-04T09:00:00Z,26.2168,-96.4998,2.0,13.9768416,13.99431313,-99999.0,'11111222,11111222,99999999' 
TABS,ioos:station:wmo:42045:1,2019-02-04T09:30:00Z,26.2168,-96.4998,2.0,18.11392791,14.66687424,-99999.0,'11111222,11111222,99999999' 
TABS,ioos:station:wmo:42045:1,2019-02-04T10:00:00Z,26.2168,-96.4998,2.0,18.45091315,11.46958151,-99999.0,'11111222,11111222,99999999' 
TABS,ioos:station:wmo:42045:1,2019-02-04T10:30:00Z,26.2168,-96.4998,2.0,2.464171879,10.69989252,-99999.0,'11111222,11111222,99999999' 
TABS,ioos:station:wmo:42045:1,2019-02-04T11:00:00Z,26.2168,-96.4998,2.0,0.989104984,8.691294495,-99999.0,'11133222,11111222,99999999' 
TABS,ioos:station:wmo:42045:1,2019-02-04T11:30:00Z,26.2168,-96.4998,2.0,323.2904423,7.160027933,-99999.0,'11133222,11111222,99999999' 
TABS,ioos:station:wmo:42045:1,2019-02-04T12:00:00Z,26.2168,-96.4998,2.0,26.95897782,6.507111494,-99999.0,'11133222,11111222,99999999' 
TABS,ioos:station:wmo:42045:1,2019-02-04T12:30:00Z,26.2168,-96.4998,2.0,57.07663337,6.218745854,-99999.0,'11133222,11111222,99999999' 
TABS,ioos:station:wmo:42045:1,2019-02-04T13:00:00Z,26.2168,-96.4998,2.0,44.07977241,7.043692214,-99999.0,'11133222,11111222,99999999' 
TABS,ioos:station:wmo:42045:1,2019-02-04T13:30:00Z,26.2168,-96.4998,2.0,77.48585836,8.491743048,-99999.0,'11133222,11111222,99999999' 
TABS,ioos:station:wmo:42045:1,2019-02-04T14:00:00Z,26.2168,-96.4998,2.0,52.92499215,5.026032232,-99999.0,'11133222,11111222,99999999' 
TABS,ioos:station:wmo:42045:1,2019-02-04T14:30:00Z,26.2168,-96.4998,2.0,76.06674638,5.39885173,-99999.0,'11133222,11111222,99999999' 
TABS,ioos:station:wmo:42045:1,2019-02-04T15:00:00Z,26.2168,-96.4998,2.0,69.44400285,6.066242659,-99999.0,'11133222,11111222,99999999' 
TABS,ioos:station:wmo:42045:1,2019-02-04T15:30:00Z,26.2168,-96.4998,2.0,28.51139008,1.843583467,-99999.0,'11133222,11111222,99999999' 
TABS,ioos:station:wmo:42045:1,2019-02-04T16:00:00Z,26.2168,-96.4998,2.0,350.5379104,0.121655251,-99999.0,'11133222,11111222,99999999' 